GFSWCAN_prec_precacc_021.txt.gz
Total_Precipitation_Accumulation
0.00 0.01 0.01 0.02 0.02 0.02 0.03 0.03 0.04 0.04 0.04 0.06 0.10 0.09 0.16 0.25 0.32 0.23 0.18 0.35 0.33 0.25 0.03 0.00 0.01 0.02 0.02 0.06 0.09 0.31 0.40 0.17 0.09 0.30 0.18 0.06 0.05 0.04 0.01 0.00 0.04 0.14 0.19 0.11 0.00 0.02 0.01 0.00 0.01 0.03 0.00 0.00 0.00 0.00
0.01 0.00 0.01 0.01 0.02 0.03 0.04 0.02 0.02 0.04 0.06 0.08 0.08 0.11 0.15 0.14 0.16 0.28 0.11 0.22 0.40 0.39 0.07 0.01 0.00 0.00 0.00 0.00 0.01 0.11 0.30 0.33 0.26 0.37 0.72 0.39 0.24 0.17 0.10 0.04 0.07 0.21 0.15 0.08 0.01 0.05 0.02 0.02 0.02 0.06 0.04 0.00 0.00 0.00
0.01 0.00 0.01 0.01 0.02 0.02 0.02 0.01 0.02 0.03 0.04 0.07 0.05 0.06 0.08 0.09 0.13 0.30 0.16 0.16 0.30 0.27 0.05 0.00 0.00 0.00 0.01 0.02 0.02 0.01 0.01 0.04 0.26 0.49 0.62 0.49 0.41 0.57 0.30 0.13 0.22 0.16 0.20 0.14 0.06 0.02 0.05 0.08 0.06 0.07 0.12 0.10 0.01 0.00
0.00 0.00 0.01 0.01 0.02 0.01 0.01 0.01 0.02 0.03 0.05 0.03 0.02 0.04 0.08 0.07 0.07 0.16 0.18 0.19 0.28 0.33 0.15 0.01 0.01 0.00 0.00 0.00 0.00 0.00 0.00 0.01 0.17 0.32 0.50 0.65 0.49 0.98 0.73 0.60 0.53 0.44 0.30 0.17 0.13 0.09 0.20 0.24 0.40 0.14 0.15 0.09 0.04 0.10
0.00 0.00 0.00 0.00 0.01 0.01 0.01 0.04 0.05 0.02 0.00 0.00 0.02 0.04 0.07 0.05 0.06 0.09 0.12 0.18 0.26 0.54 0.25 0.01 0.00 0.00 0.00 0.00 0.00 0.00 0.00 0.00 0.02 0.07 0.16 0.25 0.34 0.69 0.68 0.94 0.81 0.58 0.55 0.42 0.29 0.20 0.26 0.35 0.41 0.24 0.14 0.20 0.18 0.22
0.00 0.00 0.00 0.00 0.02 0.01 0.01 0.03 0.02 0.01 0.00 0.01 0.03 0.06 0.05 0.04 0.05 0.08 0.19 0.15 0.19 0.33 0.27 0.03 0.01 0.01 0.00 0.00 0.01 0.01 0.01 0.00 0.01 0.07 0.08 0.18 0.24 0.50 0.77 1.12 0.82 0.66 0.70 1.18 0.69 0.43 0.28 0.41 0.32 0.31 0.19 0.16 0.18 0.20
0.00 0.00 0.00 0.00 0.00 0.01 0.01 0.01 0.01 0.00 0.00 0.01 0.03 0.02 0.01 0.01 0.04 0.18 0.30 0.16 0.12 0.25 0.30 0.09 0.05 0.10 0.02 0.02 0.01 0.01 0.00 0.01 0.05 0.18 0.10 0.32 0.59 0.55 0.55 0.68 0.75 0.67 0.86 1.37 0.68 0.59 0.56 0.32 0.53 0.51 0.54 0.43 0.22 0.22
0.00 0.00 0.00 0.00 0.01 0.00 0.00 0.00 0.00 0.00 0.00 0.01 0.01 0.00 0.00 0.01 0.03 0.06 0.09 0.25 0.32 0.38 0.32 0.17 0.17 0.29 0.07 0.03 0.03 0.01 0.00 0.01 0.10 0.18 0.27 0.57 0.85 0.69 0.47 0.31 0.74 0.94 1.08 1.28 0.82 0.32 0.62 0.88 0.62 0.89 0.73 0.59 0.43 0.20
0.00 0.00 0.00 0.00 0.01 0.00 0.00 0.01 0.00 0.00 0.00 0.00 0.00 0.00 0.01 0.01 0.04 0.12 0.10 0.26 0.39 0.47 0.50 0.48 0.67 0.74 0.74 0.55 0.19 0.18 0.15 0.24 0.33 0.51 0.87 1.07 0.97 1.00 0.67 0.59 0.91 0.96 1.17 1.22 1.15 0.47 0.41 0.75 0.87 1.00 0.99 0.59 0.36 0.25
0.00 0.00 0.00 0.00 0.00 0.00 0.00 0.00 0.00 0.00 0.00 0.00 0.00 0.01 0.12 0.05 0.03 0.13 0.31 0.36 0.42 0.41 0.50 0.58 0.71 0.66 0.93 0.45 0.22 0.38 0.46 0.58 0.95 1.23 1.39 1.31 1.42 1.22 1.25 1.40 1.40 1.45 1.34 1.32 0.94 0.65 0.79 1.25 0.78 1.23 0.79 0.61 0.31 0.22
0.00 0.00 0.00 0.00 0.00 0.00 0.00 0.00 0.00 0.00 0.00 0.00 0.00 0.01 0.03 0.00 0.10 0.34 0.58 0.65 0.56 0.82 0.86 0.59 0.83 1.10 0.58 0.59 0.58 0.80 1.16 1.23 1.47 1.61 1.46 1.50 1.80 2.11 2.02 1.84 1.90 1.57 1.34 1.25 0.78 0.60 0.96 1.56 0.89 1.12 0.46 0.23 0.17 0.09
0.01 0.01 0.00 0.00 0.00 0.00 0.00 0.00 0.00 0.00 0.00 0.00 0.00 0.01 0.01 0.09 0.24 0.57 1.07 0.96 1.39 1.41 1.12 0.75 0.79 0.86 0.69 0.52 0.80 1.00 1.31 1.43 1.25 1.10 1.21 1.87 2.33 2.51 2.46 2.19 1.97 1.46 0.81 0.71 0.84 0.85 0.88 0.74 0.32 0.43 0.32 0.24 0.15 0.05
0.01 0.00 0.00 0.00 0.00 0.00 0.00 0.00 0.00 0.00 0.00 0.01 0.02 0.03 0.05 0.18 0.50 1.00 1.97 1.85 0.96 0.74 0.70 0.67 0.59 0.40 0.36 0.50 0.89 1.08 1.20 1.05 0.79 1.13 2.31 3.20 2.72 2.18 1.87 1.49 1.40 1.34 0.95 1.00 1.22 0.86 0.64 0.34 0.39 0.42 0.58 0.38 0.08 0.03
0.00 0.00 0.00 0.00 0.00 0.00 0.00 0.00 0.00 0.00 0.00 0.01 0.01 0.03 0.13 0.36 0.70 0.97 1.04 1.24 0.54 0.42 0.26 0.30 0.30 0.52 0.75 0.36 0.51 0.59 0.36 0.44 0.89 1.68 2.50 2.08 1.74 1.59 1.36 1.25 1.30 1.27 1.20 1.22 1.22 1.04 0.61 0.30 0.32 0.31 0.18 0.12 0.02 0.01
0.00 0.00 0.00 0.00 0.00 0.00 0.00 0.00 0.00 0.00 0.01 0.03 0.07 0.17 0.18 0.22 0.24 0.29 0.30 0.34 0.17 0.07 0.03 0.06 0.04 0.05 0.07 0.12 0.17 0.31 0.29 0.85 1.57 1.98 1.94 1.64 1.16 0.86 0.73 0.51 0.53 0.67 0.70 0.62 0.50 0.43 0.40 0.24 0.12 0.10 0.09 0.06 0.03 0.02
0.00 0.00 0.00 0.00 0.00 0.00 0.00 0.00 0.00 0.00 0.04 0.12 0.16 0.16 0.10 0.07 0.04 0.00 0.01 0.06 0.03 0.01 0.01 0.00 0.01 0.06 0.09 0.10 0.16 0.34 0.82 1.56 1.54 1.18 0.91 0.59 0.47 0.40 0.46 0.45 0.23 0.15 0.08 0.05 0.05 0.07 0.05 0.03 0.02 0.04 0.04 0.03 0.03 0.04
0.00 0.00 0.00 0.00 0.00 0.00 0.00 0.00 0.00 0.00 0.01 0.04 0.08 0.04 0.08 0.10 0.04 0.01 0.00 0.02 0.01 0.01 0.00 0.00 0.08 0.26 0.39 0.50 0.79 1.23 1.68 1.34 0.91 0.67 0.60 0.48 0.39 0.35 0.33 0.30 0.30 0.24 0.11 0.02 0.01 0.01 0.02 0.01 0.00 0.00 0.00 0.00 0.00 0.00
0.00 0.00 0.00 0.00 0.00 0.00 0.00 0.00 0.00 0.00 0.01 0.02 0.03 0.02 0.01 0.05 0.06 0.02 0.00 0.00 0.00 0.00 0.00 0.02 0.06 0.22 0.75 1.31 1.66 1.55 1.08 0.79 0.66 0.59 0.48 0.40 0.34 0.38 0.30 0.21 0.24 0.23 0.14 0.06 0.08 0.02 0.00 0.00 0.00 0.00 0.00 0.00 0.00 0.00
0.00 0.00 0.00 0.00 0.00 0.00 0.00 0.00 0.00 0.00 0.01 0.00 0.02 0.01 0.01 0.03 0.04 0.03 0.00 0.00 0.00 0.00 0.00 0.00 0.04 0.26 0.53 0.68 0.56 0.44 0.45 0.50 0.53 0.49 0.40 0.35 0.30 0.31 0.25 0.18 0.13 0.11 0.03 0.00 0.00 0.00 0.00 0.00 0.00 0.00 0.00 0.00 0.00 0.00
0.00 0.00 0.00 0.00 0.00 0.00 0.00 0.00 0.00 0.00 0.00 0.01 0.03 0.01 0.01 0.01 0.02 0.00 0.00 0.00 0.00 0.00 0.02 0.09 0.16 0.20 0.17 0.18 0.21 0.22 0.26 0.31 0.32 0.25 0.19 0.08 0.04 0.04 0.03 0.02 0.00 0.00 0.00 0.00 0.00 0.00 0.00 0.00 0.00 0.00 0.00 0.00 0.00 0.00
0.00 0.00 0.00 0.00 0.00 0.00 0.00 0.00 0.00 0.00 0.00 0.03 0.03 0.00 0.04 0.01 0.01 0.02 0.03 0.00 0.00 0.04 0.14 0.23 0.20 0.17 0.12 0.13 0.12 0.12 0.15 0.16 0.15 0.17 0.10 0.00 0.00 0.00 0.00 0.00 0.00 0.00 0.00 0.00 0.00 0.00 0.00 0.00 0.00 0.00 0.00 0.00 0.00 0.00
0.00 0.00 0.00 0.00 0.00 0.00 0.00 0.00 0.00 0.00 0.01 0.04 0.03 0.02 0.08 0.05 0.02 0.02 0.04 0.02 0.07 0.16 0.21 0.24 0.21 0.13 0.09 0.10 0.08 0.05 0.12 0.20 0.16 0.14 0.08 0.06 0.00 0.00 0.00 0.00 0.00 0.00 0.00 0.00 0.00 0.00 0.00 0.00 0.00 0.00 0.00 0.00 0.00 0.00
0.00 0.00 0.00 0.00 0.00 0.00 0.02 0.02 0.02 0.01 0.07 0.24 0.11 0.07 0.12 0.11 0.08 0.02 0.08 0.12 0.11 0.14 0.14 0.15 0.13 0.07 0.03 0.03 0.02 0.01 0.01 0.04 0.03 0.03 0.03 0.02 0.00 0.00 0.00 0.00 0.00 0.00 0.00 0.00 0.00 0.00 0.00 0.00 0.00 0.00 0.00 0.00 0.00 0.00
0.00 0.00 0.00 0.00 0.03 0.13 0.07 0.03 0.02 0.06 0.10 0.19 0.33 0.31 0.31 0.27 0.19 0.09 0.14 0.16 0.13 0.08 0.04 0.03 0.01 0.00 0.00 0.00 0.00 0.00 0.00 0.00 0.00 0.00 0.00 0.00 0.00 0.00 0.00 0.00 0.00 0.00 0.00 0.00 0.00 0.00 0.00 0.00 0.00 0.00 0.00 0.00 0.00 0.00
0.00 0.00 0.01 0.04 0.06 0.11 0.07 0.06 0.05 0.05 0.11 0.12 0.16 0.44 0.44 0.42 0.25 0.10 0.13 0.12 0.05 0.02 0.00 0.00 0.00 0.00 0.00 0.00 0.00 0.00 0.00 0.00 0.00 0.00 0.00 0.00 0.00 0.00 0.00 0.00 0.00 0.00 0.00 0.00 0.00 0.00 0.00 0.00 0.00 0.00 0.00 0.00 0.00 0.00
0.06 0.05 0.07 0.12 0.17 0.22 0.10 0.14 0.09 0.06 0.06 0.08 0.08 0.12 0.14 0.30 0.07 0.08 0.11 0.06 0.02 0.01 0.00 0.00 0.00 0.00 0.00 0.00 0.00 0.00 0.00 0.00 0.00 0.00 0.00 0.00 0.00 0.00 0.00 0.00 0.00 0.00 0.00 0.00 0.00 0.00 0.00 0.00 0.00 0.00 0.00 0.00 0.00 0.00
0.25 0.31 0.12 0.09 0.14 0.12 0.12 0.05 0.02 0.01 0.03 0.05 0.06 0.09 0.11 0.06 0.03 0.03 0.01 0.00 0.00 0.00 0.00 0.00 0.00 0.00 0.00 0.00 0.00 0.00 0.00 0.00 0.00 0.00 0.00 0.00 0.00 0.00 0.00 0.00 0.00 0.00 0.00 0.00 0.00 0.00 0.00 0.00 0.00 0.00 0.00 0.00 0.00 0.00
0.36 0.32 0.35 0.62 0.19 0.02 0.09 0.02 0.00 0.00 0.00 0.00 0.04 0.07 0.03 0.03 0.03 0.00 0.00 0.00 0.00 0.00 0.00 0.00 0.00 0.00 0.00 0.00 0.00 0.00 0.00 0.00 0.00 0.00 0.00 0.00 0.00 0.00 0.00 0.00 0.00 0.00 0.00 0.00 0.00 0.00 0.00 0.00 0.00 0.00 0.00 0.00 0.00 0.00
0.07 0.02 0.04 0.09 0.01 0.01 0.04 0.02 0.00 0.00 0.00 0.00 0.06 0.02 0.01 0.05 0.03 0.01 0.01 0.01 0.01 0.03 0.03 0.01 0.00 0.00 0.00 0.00 0.00 0.00 0.00 0.00 0.00 0.00 0.00 0.00 0.00 0.00 0.00 0.00 0.00 0.00 0.00 0.00 0.00 0.00 0.00 0.00 0.00 0.00 0.00 0.00 0.00 0.00
0.00 0.00 0.04 0.03 0.05 0.13 0.09 0.01 0.02 0.02 0.01 0.00 0.00 0.00 0.02 0.04 0.04 0.03 0.04 0.03 0.03 0.02 0.00 0.00 0.00 0.00 0.00 0.00 0.00 0.00 0.00 0.00 0.00 0.00 0.00 0.00 0.00 0.00 0.00 0.00 0.00 0.00 0.00 0.00 0.00 0.00 0.00 0.00 0.00 0.00 0.00 0.00 0.00 0.00
0.00 0.00 0.00 0.02 0.04 0.04 0.01 0.00 0.01 0.04 0.05 0.02 0.01 0.01 0.03 0.02 0.03 0.02 0.01 0.00 0.00 0.00 0.00 0.00 0.00 0.00 0.00 0.00 0.00 0.00 0.00 0.00 0.00 0.00 0.00 0.00 0.00 0.00 0.00 0.00 0.00 0.00 0.00 0.00 0.00 0.00 0.00 0.00 0.00 0.00 0.00 0.00 0.00 0.00
0.00 0.00 0.00 0.00 0.01 0.01 0.01 0.04 0.01 0.03 0.03 0.02 0.02 0.02 0.05 0.12 0.15 0.04 0.01 0.00 0.00 0.00 0.00 0.00 0.00 0.00 0.00 0.00 0.00 0.00 0.00 0.00 0.00 0.00 0.00 0.00 0.00 0.00 0.00 0.00 0.00 0.00 0.00 0.00 0.00 0.00 0.00 0.00 0.00 0.00 0.00 0.00 0.00 0.00
0.00 0.00 0.00 0.00 0.00 0.00 0.01 0.10 0.16 0.13 0.02 0.00 0.02 0.04 0.07 0.11 0.07 0.02 0.01 0.00 0.00 0.00 0.00 0.00 0.00 0.00 0.00 0.00 0.00 0.00 0.00 0.00 0.00 0.00 0.00 0.00 0.00 0.00 0.00 0.00 0.00 0.00 0.00 0.00 0.00 0.00 0.00 0.00 0.00 0.00 0.00 0.00 0.00 0.00

GFSWCAN_prec_precacc_024.txt.gz
Total_Precipitation_Accumulation
0.00 0.01 0.01 0.02 0.02 0.02 0.03 0.03 0.04 0.04 0.04 0.06 0.10 0.10 0.16 0.27 0.47 0.52 0.32 0.45 0.42 0.30 0.04 0.00 0.01 0.03 0.03 0.08 0.11 0.32 0.41 0.19 0.13 0.34 0.20 0.07 0.07 0.06 0.01 0.00 0.04 0.14 0.19 0.11 0.00 0.02 0.01 0.00 0.01 0.03 0.01 0.00 0.00 0.00
0.01 0.00 0.01 0.01 0.02 0.03 0.04 0.02 0.02 0.04 0.06 0.08 0.08 0.12 0.16 0.16 0.26 0.52 0.27 0.30 0.47 0.45 0.08 0.01 0.00 0.00 0.00 0.00 0.02 0.11 0.31 0.34 0.27 0.40 0.76 0.42 0.27 0.20 0.11 0.04 0.07 0.21 0.15 0.08 0.01 0.05 0.02 0.02 0.02 0.06 0.04 0.00 0.00 0.00
0.01 0.00 0.01 0.01 0.02 0.02 0.02 0.01 0.02 0.03 0.04 0.07 0.06 0.07 0.09 0.10 0.16 0.45 0.28 0.25 0.41 0.32 0.06 0.00 0.00 0.00 0.01 0.02 0.02 0.01 0.01 0.04 0.26 0.49 0.64 0.51 0.43 0.59 0.33 0.14 0.23 0.16 0.21 0.15 0.06 0.02 0.05 0.08 0.06 0.07 0.12 0.10 0.01 0.00
0.00 0.00 0.01 0.01 0.02 0.01 0.01 0.01 0.02 0.03 0.05 0.03 0.02 0.05 0.09 0.09 0.08 0.21 0.24 0.22 0.35 0.41 0.17 0.01 0.01 0.00 0.00 0.00 0.00 0.00 0.00 0.01 0.17 0.33 0.52 0.67 0.51 1.00 0.74 0.61 0.54 0.44 0.30 0.17 0.13 0.09 0.20 0.24 0.40 0.14 0.15 0.09 0.04 0.10
0.00 0.00 0.00 0.00 0.01 0.01 0.01 0.04 0.05 0.03 0.00 0.01 0.02 0.05 0.09 0.07 0.07 0.11 0.16 0.19 0.28 0.64 0.28 0.01 0.00 0.00 0.00 0.00 0.00 0.00 0.00 0.00 0.03 0.09 0.18 0.27 0.35 0.70 0.69 0.95 0.81 0.58 0.55 0.42 0.29 0.20 0.26 0.35 0.41 0.24 0.14 0.20 0.18 0.22
0.00 0.00 0.00 0.00 0.02 0.01 0.01 0.03 0.02 0.01 0.01 0.02 0.04 0.07 0.05 0.05 0.06 0.08 0.20 0.16 0.21 0.39 0.33 0.04 0.01 0.01 0.00 0.00 0.01 0.01 0.01 0.00 0.02 0.08 0.09 0.19 0.24 0.53 0.81 1.13 0.82 0.66 0.70 1.18 0.69 0.43 0.28 0.41 0.32 0.31 0.19 0.16 0.19 0.21
0.00 0.00 0.00 0.00 0.00 0.01 0.01 0.01 0.01 0.01 0.01 0.02 0.04 0.03 0.01 0.01 0.04 0.19 0.30 0.16 0.14 0.27 0.32 0.11 0.06 0.10 0.02 0.02 0.02 0.02 0.02 0.03 0.08 0.22 0.13 0.33 0.60 0.62 0.61 0.69 0.75 0.68 0.86 1.37 0.68 0.60 0.56 0.32 0.53 0.51 0.55 0.47 0.27 0.27
0.00 0.00 0.00 0.00 0.01 0.01 0.01 0.01 0.01 0.01 0.01 0.02 0.02 0.00 0.00 0.01 0.03 0.06 0.10 0.26 0.33 0.40 0.35 0.23 0.21 0.31 0.13 0.11 0.13 0.08 0.09 0.12 0.20 0.29 0.36 0.65 0.96 0.83 0.57 0.33 0.78 0.98 1.12 1.32 0.83 0.32 0.62 0.89 0.62 0.90 0.76 0.67 0.57 0.36
0.00 0.00 0.00 0.01 0.01 0.01 0.01 0.01 0.01 0.00 0.01 0.01 0.00 0.00 0.01 0.01 0.04 0.13 0.11 0.27 0.40 0.51 0.59 0.63 0.83 0.86 0.84 0.63 0.29 0.32 0.32 0.43 0.50 0.67 1.03 1.29 1.25 1.41 1.05 0.97 1.23 1.16 1.26 1.25 1.16 0.48 0.42 0.76 0.88 1.05 1.09 0.84 0.56 0.40
0.00 0.00 0.00 0.01 0.01 0.00 0.01 0.00 0.00 0.00 0.00 0.00 0.00 0.01 0.12 0.05 0.04 0.15 0.32 0.37 0.44 0.45 0.58 0.72 0.84 0.79 1.02 0.50 0.29 0.50 0.61 0.76 1.16 1.46 1.68 1.68 1.95 1.81 2.06 2.02 1.78 1.72 1.44 1.33 0.94 0.67 0.81 1.28 0.86 1.47 1.18 1.18 0.53 0.42
0.01 0.00 0.01 0.01 0.00 0.00 0.00 0.00 0.00 0.00 0.00 0.00 0.00 0.01 0.03 0.00 0.10 0.34 0.58 0.66 0.58 0.88 0.93 0.64 0.86 1.11 0.60 0.62 0.62 0.87 1.25 1.40 1.70 1.84 1.79 2.00 2.51 3.04 2.67 2.18 2.10 1.66 1.37 1.26 0.79 0.62 1.01 1.62 1.07 1.77 1.08 0.95 0.49 0.31
0.01 0.01 0.00 0.00 0.00 0.00 0.00 0.00 0.00 0.00 0.00 0.01 0.01 0.01 0.01 0.09 0.24 0.57 1.07 0.98 1.43 1.46 1.13 0.75 0.79 0.86 0.69 0.53 0.85 1.04 1.38 1.56 1.39 1.23 1.53 2.57 3.16 3.06 2.90 2.64 2.27 1.58 0.90 0.80 0.92 0.98 1.07 1.06 0.89 1.22 0.81 0.69 0.59 0.37
0.01 0.00 0.00 0.00 0.00 0.00 0.00 0.00 0.00 0.00 0.00 0.01 0.02 0.03 0.05 0.18 0.51 1.02 1.99 1.88 0.99 0.75 0.70 0.67 0.60 0.42 0.36 0.51 0.91 1.10 1.21 1.07 0.82 1.25 2.73 3.80 3.10 2.48 2.18 1.84 1.72 1.63 1.19 1.20 1.46 1.24 1.17 0.96 1.00 0.91 0.95 0.80 0.61 0.51
0.00 0.00 0.00 0.00 0.00 0.00 0.00 0.00 0.00 0.00 0.00 0.01 0.01 0.03 0.13 0.37 0.75 1.04 1.06 1.25 0.54 0.42 0.26 0.30 0.31 0.52 0.75 0.37 0.52 0.60 0.37 0.44 0.93 1.84 2.82 2.36 1.92 1.71 1.50 1.47 1.71 1.84 1.81 1.81 1.85 1.66 1.13 0.62 0.63 0.64 0.46 0.39 0.29 0.27
0.00 0.00 0.00 0.00 0.00 0.00 0.00 0.00 0.00 0.00 0.01 0.03 0.07 0.17 0.18 0.22 0.24 0.30 0.30 0.34 0.17 0.07 0.03 0.06 0.04 0.05 0.07 0.12 0.18 0.31 0.31 0.94 1.76 2.19 2.05 1.68 1.20 0.88 0.74 0.53 0.58 0.80 0.92 0.96 0.87 0.66 0.56 0.42 0.32 0.31 0.24 0.15 0.10 0.09
0.00 0.00 0.00 0.00 0.00 0.00 0.00 0.00 0.00 0.00 0.04 0.12 0.16 0.16 0.10 0.07 0.04 0.00 0.01 0.06 0.03 0.01 0.01 0.00 0.01 0.06 0.10 0.11 0.18 0.38 0.87 1.70 1.69 1.26 0.93 0.59 0.47 0.40 0.46 0.45 0.23 0.15 0.08 0.06 0.06 0.09 0.07 0.08 0.11 0.14 0.11 0.09 0.08 0.06
0.00 0.00 0.00 0.00 0.00 0.00 0.00 0.00 0.00 0.00 0.01 0.04 0.08 0.04 0.08 0.10 0.04 0.01 0.00 0.02 0.01 0.01 0.00 0.00 0.08 0.26 0.40 0.51 0.83 1.35 1.82 1.41 0.92 0.67 0.60 0.48 0.39 0.35 0.33 0.30 0.30 0.24 0.11 0.02 0.01 0.01 0.02 0.01 0.00 0.01 0.00 0.00 0.00 0.00
0.00 0.00 0.00 0.00 0.00 0.00 0.00 0.00 0.00 0.00 0.01 0.02 0.03 0.02 0.01 0.05 0.06 0.02 0.00 0.00 0.00 0.00 0.00 0.02 0.06 0.22 0.76 1.34 1.68 1.57 1.13 0.83 0.66 0.59 0.48 0.40 0.34 0.38 0.30 0.21 0.24 0.23 0.14 0.06 0.08 0.02 0.00 0.00 0.00 0.00 0.00 0.00 0.00 0.00
0.00 0.00 0.00 0.00 0.00 0.00 0.00 0.00 0.00 0.00 0.01 0.00 0.02 0.01 0.01 0.03 0.04 0.03 0.00 0.00 0.00 0.00 0.00 0.00 0.04 0.27 0.53 0.69 0.56 0.44 0.45 0.50 0.53 0.49 0.40 0.35 0.30 0.31 0.25 0.18 0.13 0.11 0.03 0.00 0.00 0.00 0.00 0.00 0.00 0.00 0.00 0.00 0.00 0.00
0.00 0.00 0.00 0.00 0.00 0.00 0.00 0.00 0.00 0.00 0.00 0.01 0.03 0.01 0.01 0.01 0.02 0.00 0.00 0.00 0.00 0.00 0.02 0.09 0.16 0.20 0.17 0.18 0.21 0.22 0.26 0.31 0.32 0.25 0.19 0.08 0.04 0.04 0.03 0.02 0.00 0.00 0.00 0.00 0.00 0.00 0.00 0.00 0.00 0.00 0.00 0.00 0.00 0.00
0.00 0.00 0.00 0.00 0.00 0.00 0.00 0.00 0.00 0.00 0.00 0.03 0.03 0.00 0.04 0.01 0.01 0.02 0.03 0.00 0.00 0.04 0.14 0.23 0.20 0.17 0.12 0.13 0.12 0.12 0.15 0.16 0.15 0.17 0.10 0.00 0.00 0.00 0.00 0.00 0.00 0.00 0.00 0.00 0.00 0.00 0.00 0.00 0.00 0.00 0.00 0.00 0.00 0.00
0.00 0.00 0.00 0.00 0.00 0.00 0.00 0.00 0.00 0.00 0.01 0.04 0.03 0.02 0.08 0.05 0.02 0.02 0.04 0.02 0.07 0.16 0.21 0.24 0.21 0.13 0.09 0.10 0.08 0.05 0.12 0.20 0.16 0.14 0.08 0.06 0.00 0.00 0.00 0.00 0.00 0.00 0.00 0.00 0.00 0.00 0.00 0.00 0.00 0.00 0.00 0.00 0.00 0.00
0.00 0.00 0.00 0.00 0.00 0.00 0.02 0.02 0.02 0.01 0.07 0.24 0.11 0.07 0.12 0.11 0.08 0.02 0.08 0.12 0.11 0.14 0.14 0.15 0.13 0.07 0.03 0.03 0.02 0.01 0.01 0.04 0.03 0.03 0.03 0.02 0.00 0.00 0.00 0.00 0.00 0.00 0.00 0.00 0.00 0.00 0.00 0.00 0.00 0.00 0.00 0.00 0.00 0.00
0.00 0.00 0.00 0.00 0.03 0.13 0.07 0.03 0.02 0.06 0.10 0.19 0.33 0.31 0.31 0.27 0.19 0.09 0.14 0.16 0.13 0.08 0.05 0.03 0.01 0.00 0.00 0.00 0.00 0.00 0.00 0.00 0.00 0.00 0.00 0.00 0.00 0.00 0.00 0.00 0.00 0.00 0.00 0.00 0.00 0.00 0.00 0.00 0.00 0.00 0.00 0.00 0.00 0.00
0.00 0.00 0.01 0.04 0.06 0.11 0.07 0.06 0.05 0.05 0.11 0.12 0.16 0.44 0.44 0.42 0.25 0.10 0.13 0.12 0.05 0.02 0.00 0.00 0.00 0.00 0.00 0.00 0.00 0.00 0.00 0.00 0.00 0.00 0.00 0.00 0.00 0.00 0.00 0.00 0.00 0.00 0.00 0.00 0.00 0.00 0.00 0.00 0.00 0.00 0.00 0.00 0.00 0.00
0.06 0.05 0.07 0.12 0.17 0.22 0.10 0.14 0.09 0.06 0.06 0.08 0.08 0.12 0.14 0.30 0.07 0.08 0.11 0.06 0.02 0.01 0.00 0.00 0.00 0.00 0.00 0.00 0.00 0.00 0.00 0.00 0.00 0.00 0.00 0.00 0.00 0.00 0.00 0.00 0.00 0.00 0.00 0.00 0.00 0.00 0.00 0.00 0.00 0.00 0.00 0.00 0.00 0.00
0.25 0.31 0.12 0.09 0.14 0.12 0.12 0.05 0.02 0.01 0.03 0.05 0.06 0.09 0.11 0.06 0.03 0.03 0.01 0.00 0.00 0.00 0.00 0.00 0.00 0.00 0.00 0.00 0.00 0.00 0.00 0.00 0.00 0.00 0.00 0.00 0.00 0.00 0.00 0.00 0.00 0.00 0.00 0.00 0.00 0.00 0.00 0.00 0.00 0.00 0.00 0.00 0.00 0.00
0.36 0.32 0.35 0.62 0.19 0.02 0.09 0.02 0.00 0.00 0.00 0.00 0.04 0.07 0.03 0.03 0.03 0.00 0.00 0.00 0.00 0.00 0.00 0.00 0.00 0.00 0.00 0.00 0.00 0.00 0.00 0.00 0.00 0.00 0.00 0.00 0.00 0.00 0.00 0.00 0.00 0.00 0.00 0.00 0.00 0.00 0.00 0.00 0.00 0.00 0.00 0.00 0.00 0.00
0.07 0.02 0.04 0.09 0.01 0.01 0.04 0.02 0.00 0.00 0.00 0.00 0.06 0.02 0.01 0.05 0.03 0.01 0.01 0.01 0.01 0.03 0.03 0.01 0.00 0.00 0.00 0.00 0.00 0.00 0.00 0.00 0.00 0.00 0.00 0.00 0.00 0.00 0.00 0.00 0.00 0.00 0.00 0.00 0.00 0.00 0.00 0.00 0.00 0.00 0.00 0.00 0.00 0.00
0.00 0.00 0.04 0.03 0.05 0.13 0.09 0.01 0.03 0.02 0.01 0.00 0.00 0.00 0.03 0.04 0.04 0.03 0.04 0.04 0.05 0.02 0.00 0.00 0.00 0.00 0.00 0.00 0.00 0.00 0.00 0.00 0.00 0.00 0.00 0.00 0.00 0.00 0.00 0.00 0.00 0.00 0.00 0.00 0.00 0.00 0.00 0.00 0.00 0.00 0.00 0.00 0.00 0.00
0.00 0.00 0.00 0.02 0.04 0.04 0.01 0.00 0.01 0.04 0.05 0.02 0.01 0.01 0.04 0.03 0.03 0.02 0.02 0.02 0.01 0.00 0.00 0.00 0.00 0.00 0.00 0.00 0.00 0.00 0.00 0.00 0.00 0.00 0.00 0.00 0.00 0.00 0.00 0.00 0.00 0.00 0.00 0.00 0.00 0.00 0.00 0.00 0.00 0.00 0.00 0.00 0.00 0.00
0.00 0.00 0.00 0.00 0.01 0.01 0.01 0.04 0.01 0.03 0.03 0.02 0.02 0.02 0.05 0.13 0.15 0.04 0.02 0.01 0.00 0.00 0.00 0.00 0.00 0.00 0.00 0.00 0.00 0.00 0.00 0.00 0.00 0.00 0.00 0.00 0.00 0.00 0.00 0.00 0.00 0.00 0.00 0.00 0.00 0.00 0.00 0.00 0.00 0.00 0.00 0.00 0.00 0.00
0.00 0.00 0.00 0.00 0.00 0.00 0.01 0.10 0.16 0.13 0.02 0.00 0.02 0.04 0.07 0.11 0.07 0.02 0.01 0.00 0.00 0.00 0.00 0.00 0.00 0.00 0.00 0.00 0.00 0.00 0.00 0.00 0.00 0.00 0.00 0.00 0.00 0.00 0.00 0.00 0.00 0.00 0.00 0.00 0.00 0.00 0.00 0.00 0.01 0.01 0.00 0.00 0.00 0.00

GFSWCAN_prec_precacc_030.txt.gz
Total_Precipitation_Accumulation
0.00 0.01 0.01 0.02 0.02 0.02 0.03 0.03 0.04 0.04 0.04 0.06 0.10 0.11 0.18 0.29 0.50 0.73 0.55 0.83 0.73 0.39 0.04 0.01 0.01 0.04 0.05 0.11 0.15 0.34 0.42 0.26 0.22 0.48 0.33 0.15 0.10 0.08 0.01 0.00 0.04 0.14 0.19 0.11 0.00 0.02 0.01 0.00 0.01 0.03 0.01 0.01 0.00 0.00
0.01 0.00 0.01 0.01 0.02 0.03 0.04 0.02 0.02 0.04 0.06 0.08 0.09 0.14 0.17 0.17 0.27 0.66 0.44 0.51 0.63 0.59 0.10 0.01 0.01 0.00 0.00 0.01 0.04 0.13 0.32 0.37 0.32 0.51 0.90 0.51 0.30 0.21 0.11 0.05 0.07 0.21 0.15 0.08 0.01 0.05 0.02 0.02 0.02 0.06 0.04 0.00 0.00 0.00
0.01 0.00 0.01 0.01 0.02 0.02 0.02 0.01 0.03 0.03 0.05 0.08 0.07 0.09 0.11 0.12 0.19 0.55 0.39 0.35 0.62 0.47 0.10 0.00 0.00 0.01 0.01 0.02 0.02 0.02 0.02 0.05 0.26 0.50 0.66 0.55 0.46 0.61 0.38 0.15 0.24 0.16 0.21 0.15 0.06 0.02 0.05 0.08 0.06 0.07 0.12 0.10 0.01 0.00
0.00 0.00 0.01 0.01 0.02 0.01 0.01 0.02 0.02 0.04 0.06 0.04 0.03 0.07 0.11 0.13 0.12 0.25 0.31 0.23 0.41 0.52 0.21 0.01 0.01 0.00 0.00 0.00 0.01 0.00 0.00 0.01 0.17 0.34 0.58 0.72 0.53 1.01 0.76 0.62 0.54 0.44 0.30 0.17 0.13 0.09 0.20 0.24 0.40 0.14 0.15 0.09 0.04 0.10
0.00 0.00 0.00 0.00 0.01 0.01 0.01 0.04 0.05 0.03 0.01 0.01 0.03 0.07 0.11 0.09 0.08 0.13 0.22 0.19 0.30 0.74 0.32 0.02 0.01 0.00 0.00 0.00 0.00 0.00 0.00 0.00 0.03 0.12 0.22 0.29 0.37 0.71 0.69 0.96 0.81 0.58 0.55 0.42 0.29 0.20 0.26 0.35 0.41 0.24 0.14 0.20 0.18 0.22
0.00 0.00 0.00 0.00 0.02 0.01 0.01 0.04 0.03 0.02 0.01 0.02 0.05 0.08 0.06 0.05 0.06 0.10 0.24 0.19 0.22 0.43 0.41 0.05 0.02 0.02 0.01 0.01 0.01 0.02 0.03 0.03 0.09 0.18 0.18 0.25 0.27 0.62 0.87 1.14 0.82 0.66 0.70 1.18 0.69 0.43 0.28 0.41 0.32 0.31 0.19 0.16 0.19 0.21
0.00 0.00 0.00 0.00 0.01 0.01 0.01 0.01 0.02 0.01 0.02 0.03 0.05 0.03 0.01 0.01 0.04 0.19 0.31 0.17 0.15 0.28 0.38 0.17 0.15 0.16 0.06 0.07 0.09 0.14 0.18 0.27 0.40 0.57 0.40 0.54 0.81 0.97 0.83 0.74 0.78 0.70 0.87 1.37 0.68 0.60 0.56 0.32 0.53 0.51 0.55 0.47 0.27 0.27
0.00 0.00 0.00 0.01 0.01 0.01 0.01 0.01 0.01 0.02 0.02 0.03 0.02 0.00 0.00 0.01 0.04 0.07 0.10 0.26 0.34 0.41 0.38 0.30 0.27 0.43 0.25 0.21 0.28 0.21 0.28 0.38 0.51 0.66 0.67 0.91 1.25 1.29 1.03 0.62 1.14 1.33 1.23 1.33 0.83 0.32 0.62 0.89 0.62 0.90 0.76 0.67 0.57 0.36
0.00 0.00 0.01 0.01 0.01 0.01 0.01 0.01 0.01 0.01 0.02 0.01 0.00 0.00 0.01 0.01 0.05 0.14 0.11 0.28 0.41 0.52 0.64 0.71 0.92 0.99 0.94 0.67 0.35 0.39 0.46 0.63 0.74 1.02 1.47 1.84 2.12 2.65 2.17 2.02 1.85 1.63 1.42 1.27 1.17 0.48 0.42 0.76 0.88 1.05 1.09 0.84 0.57 0.41
0.00 0.01 0.01 0.01 0.01 0.00 0.01 0.00 0.00 0.01 0.00 0.00 0.00 0.01 0.12 0.06 0.04 0.16 0.33 0.38 0.44 0.45 0.59 0.74 0.86 0.81 1.03 0.53 0.32 0.58 0.71 0.90 1.40 1.71 2.10 2.44 3.13 3.11 3.35 2.73 1.95 1.79 1.46 1.34 0.96 0.68 0.82 1.29 0.86 1.47 1.18 1.18 0.58 0.52
0.01 0.01 0.01 0.01 0.00 0.00 0.00 0.00 0.00 0.01 0.00 0.00 0.00 0.01 0.03 0.00 0.11 0.34 0.59 0.66 0.58 0.90 0.94 0.64 0.86 1.11 0.60 0.63 0.64 0.90 1.29 1.49 1.87 1.96 1.96 2.45 3.46 4.20 3.70 2.88 2.45 1.83 1.43 1.28 0.80 0.64 1.02 1.70 1.16 1.85 1.22 1.12 0.77 0.78
0.01 0.01 0.00 0.00 0.00 0.00 0.00 0.00 0.00 0.00 0.00 0.01 0.01 0.01 0.01 0.09 0.24 0.57 1.07 0.98 1.44 1.49 1.15 0.76 0.83 0.88 0.69 0.53 0.86 1.06 1.45 1.63 1.44 1.28 1.69 3.06 3.80 3.78 3.79 3.69 3.15 2.35 1.57 1.42 1.52 1.60 1.38 1.39 1.18 1.54 1.50 1.04 1.01 0.81
0.01 0.00 0.00 0.00 0.00 0.00 0.00 0.00 0.00 0.00 0.00 0.01 0.02 0.03 0.05 0.18 0.51 1.02 1.99 1.88 1.00 0.75 0.71 0.68 0.67 0.49 0.41 0.54 0.99 1.21 1.24 1.10 0.84 1.29 2.97 4.12 3.30 2.71 2.60 2.46 2.46 2.55 2.18 2.32 2.78 2.30 1.74 1.41 1.50 1.65 1.85 1.30 1.00 1.06
0.00 0.00 0.00 0.00 0.00 0.00 0.00 0.00 0.00 0.00 0.00 0.01 0.01 0.03 0.14 0.37 0.75 1.04 1.06 1.25 0.54 0.42 0.26 0.30 0.36 0.54 0.76 0.38 0.53 0.68 0.42 0.45 0.95 1.94 3.00 2.43 1.99 1.79 1.56 1.56 1.89 2.19 2.39 2.75 3.01 2.66 2.00 1.41 1.54 1.62 1.31 1.05 0.83 1.07
0.00 0.00 0.00 0.00 0.00 0.00 0.00 0.00 0.00 0.00 0.01 0.03 0.07 0.17 0.18 0.22 0.24 0.30 0.30 0.34 0.17 0.07 0.03 0.06 0.04 0.05 0.07 0.13 0.19 0.34 0.34 0.98 1.82 2.29 2.10 1.72 1.25 0.92 0.75 0.54 0.58 0.81 0.96 1.10 1.19 1.24 1.39 1.24 1.00 0.96 0.83 0.66 0.57 0.55
0.00 0.00 0.00 0.00 0.00 0.00 0.00 0.00 0.00 0.00 0.04 0.12 0.16 0.16 0.10 0.07 0.04 0.00 0.01 0.06 0.03 0.01 0.01 0.00 0.01 0.06 0.10 0.11 0.19 0.39 0.94 1.81 1.75 1.28 0.94 0.60 0.50 0.43 0.47 0.45 0.23 0.15 0.08 0.06 0.07 0.10 0.13 0.21 0.32 0.41 0.38 0.34 0.32 0.27
0.00 0.00 0.00 0.00 0.00 0.00 0.00 0.00 0.00 0.00 0.01 0.04 0.08 0.04 0.08 0.10 0.04 0.01 0.00 0.02 0.01 0.01 0.00 0.00 0.08 0.27 0.41 0.53 0.87 1.41 1.94 1.52 0.94 0.67 0.60 0.49 0.40 0.35 0.33 0.30 0.30 0.24 0.11 0.02 0.01 0.01 0.02 0.01 0.00 0.01 0.01 0.01 0.01 0.01
0.00 0.00 0.00 0.00 0.00 0.00 0.00 0.00 0.00 0.00 0.01 0.02 0.03 0.02 0.01 0.05 0.06 0.02 0.00 0.00 0.00 0.00 0.00 0.02 0.06 0.23 0.77 1.36 1.70 1.59 1.17 0.88 0.68 0.59 0.48 0.40 0.34 0.38 0.30 0.21 0.24 0.23 0.14 0.06 0.08 0.02 0.00 0.00 0.00 0.00 0.00 0.00 0.00 0.00
0.00 0.00 0.00 0.00 0.00 0.00 0.00 0.00 0.00 0.00 0.01 0.00 0.02 0.01 0.01 0.03 0.04 0.03 0.00 0.00 0.00 0.00 0.00 0.00 0.04 0.27 0.53 0.69 0.56 0.44 0.45 0.51 0.53 0.49 0.40 0.35 0.30 0.31 0.25 0.18 0.13 0.11 0.03 0.00 0.00 0.00 0.00 0.00 0.00 0.00 0.00 0.00 0.00 0.00
0.00 0.00 0.00 0.00 0.00 0.00 0.00 0.00 0.00 0.00 0.00 0.01 0.03 0.01 0.01 0.01 0.02 0.00 0.00 0.00 0.00 0.00 0.02 0.09 0.16 0.20 0.17 0.18 0.21 0.22 0.26 0.31 0.32 0.25 0.19 0.08 0.04 0.04 0.03 0.02 0.00 0.00 0.00 0.00 0.00 0.00 0.00 0.00 0.00 0.00 0.00 0.00 0.00 0.00
0.00 0.00 0.00 0.00 0.00 0.00 0.00 0.00 0.00 0.00 0.00 0.03 0.03 0.00 0.04 0.01 0.01 0.02 0.03 0.00 0.00 0.04 0.14 0.23 0.20 0.17 0.12 0.13 0.12 0.12 0.15 0.16 0.15 0.17 0.10 0.00 0.00 0.00 0.00 0.00 0.00 0.00 0.00 0.00 0.00 0.00 0.00 0.00 0.00 0.00 0.00 0.00 0.00 0.00
0.00 0.00 0.00 0.00 0.00 0.00 0.00 0.00 0.00 0.00 0.01 0.04 0.03 0.02 0.08 0.05 0.02 0.02 0.04 0.02 0.07 0.16 0.21 0.24 0.21 0.13 0.09 0.10 0.08 0.05 0.12 0.20 0.16 0.14 0.08 0.06 0.00 0.00 0.00 0.00 0.00 0.00 0.00 0.00 0.00 0.00 0.00 0.00 0.00 0.00 0.00 0.00 0.00 0.00
0.00 0.00 0.00 0.00 0.00 0.01 0.02 0.02 0.02 0.01 0.08 0.24 0.11 0.07 0.12 0.11 0.08 0.02 0.08 0.12 0.11 0.14 0.14 0.15 0.13 0.07 0.03 0.03 0.02 0.01 0.01 0.04 0.03 0.03 0.03 0.02 0.00 0.00 0.00 0.00 0.00 0.00 0.00 0.00 0.00 0.00 0.00 0.00 0.00 0.00 0.00 0.00 0.00 0.00
0.00 0.00 0.00 0.00 0.04 0.13 0.07 0.03 0.02 0.06 0.10 0.20 0.33 0.31 0.31 0.27 0.19 0.09 0.14 0.16 0.13 0.08 0.05 0.03 0.01 0.00 0.00 0.00 0.00 0.00 0.00 0.00 0.00 0.00 0.00 0.00 0.00 0.00 0.00 0.00 0.00 0.00 0.00 0.00 0.00 0.00 0.00 0.00 0.00 0.00 0.00 0.00 0.00 0.00
0.01 0.01 0.02 0.05 0.06 0.11 0.07 0.06 0.05 0.05 0.11 0.12 0.16 0.44 0.44 0.42 0.25 0.10 0.13 0.12 0.05 0.02 0.00 0.00 0.00 0.00 0.00 0.00 0.00 0.00 0.00 0.00 0.00 0.00 0.00 0.00 0.00 0.00 0.00 0.00 0.00 0.00 0.00 0.00 0.00 0.00 0.00 0.00 0.00 0.00 0.00 0.00 0.00 0.00
0.07 0.05 0.08 0.12 0.17 0.22 0.10 0.14 0.09 0.06 0.06 0.08 0.08 0.13 0.14 0.31 0.08 0.09 0.11 0.06 0.02 0.01 0.00 0.01 0.00 0.00 0.00 0.00 0.00 0.00 0.00 0.00 0.00 0.00 0.00 0.00 0.00 0.00 0.00 0.00 0.00 0.00 0.00 0.00 0.00 0.00 0.00 0.00 0.00 0.00 0.00 0.00 0.00 0.00
0.25 0.31 0.12 0.09 0.14 0.12 0.12 0.05 0.02 0.01 0.08 0.06 0.06 0.09 0.12 0.14 0.05 0.03 0.01 0.00 0.00 0.00 0.01 0.01 0.00 0.01 0.00 0.00 0.00 0.00 0.00 0.00 0.00 0.00 0.00 0.00 0.00 0.00 0.00 0.00 0.00 0.00 0.00 0.00 0.00 0.00 0.00 0.00 0.00 0.00 0.00 0.00 0.00 0.00
0.36 0.32 0.35 0.62 0.19 0.02 0.10 0.08 0.04 0.01 0.02 0.00 0.04 0.07 0.05 0.05 0.04 0.01 0.00 0.00 0.00 0.00 0.01 0.00 0.00 0.00 0.00 0.00 0.00 0.00 0.00 0.00 0.00 0.00 0.00 0.00 0.00 0.00 0.00 0.00 0.00 0.00 0.00 0.00 0.00 0.00 0.00 0.00 0.00 0.00 0.00 0.00 0.00 0.00
0.09 0.07 0.05 0.09 0.02 0.01 0.04 0.07 0.01 0.01 0.00 0.00 0.06 0.02 0.01 0.05 0.06 0.02 0.01 0.01 0.02 0.04 0.03 0.01 0.00 0.00 0.00 0.00 0.00 0.00 0.00 0.00 0.00 0.00 0.00 0.00 0.00 0.00 0.00 0.00 0.00 0.00 0.00 0.00 0.00 0.00 0.00 0.00 0.00 0.00 0.00 0.00 0.00 0.00
0.03 0.05 0.04 0.03 0.05 0.13 0.10 0.01 0.03 0.02 0.01 0.00 0.00 0.00 0.03 0.05 0.05 0.03 0.04 0.04 0.05 0.03 0.00 0.00 0.00 0.00 0.00 0.00 0.00 0.00 0.00 0.00 0.00 0.00 0.00 0.00 0.00 0.00 0.00 0.00 0.00 0.00 0.00 0.00 0.00 0.00 0.00 0.00 0.00 0.00 0.00 0.00 0.00 0.00
0.00 0.00 0.00 0.02 0.04 0.04 0.02 0.00 0.01 0.04 0.05 0.02 0.01 0.01 0.04 0.04 0.11 0.04 0.02 0.02 0.01 0.00 0.00 0.00 0.00 0.00 0.00 0.00 0.00 0.00 0.00 0.00 0.00 0.00 0.00 0.00 0.00 0.00 0.00 0.00 0.00 0.00 0.00 0.00 0.00 0.00 0.00 0.00 0.00 0.00 0.00 0.00 0.00 0.00
0.00 0.00 0.00 0.00 0.01 0.01 0.01 0.04 0.01 0.03 0.03 0.02 0.02 0.02 0.05 0.18 0.31 0.06 0.02 0.01 0.00 0.00 0.00 0.00 0.00 0.00 0.00 0.00 0.00 0.00 0.00 0.00 0.00 0.00 0.00 0.00 0.00 0.00 0.00 0.00 0.00 0.00 0.00 0.00 0.00 0.00 0.00 0.01 0.01 0.02 0.02 0.01 0.01 0.00
0.00 0.00 0.00 0.00 0.00 0.00 0.01 0.10 0.16 0.13 0.02 0.01 0.03 0.05 0.07 0.15 0.14 0.03 0.01 0.00 0.00 0.00 0.00 0.00 0.00 0.00 0.00 0.00 0.00 0.00 0.00 0.00 0.00 0.00 0.00 0.00 0.00 0.00 0.00 0.00 0.00 0.00 0.00 0.00 0.01 0.01 0.01 0.02 0.03 0.03 0.02 0.02 0.02 0.01

GFSWCAN_prec_precacc_033.txt.gz
Total_Precipitation_Accumulation
0.00 0.01 0.01 0.02 0.02 0.02 0.03 0.03 0.04 0.04 0.04 0.07 0.12 0.12 0.19 0.30 0.52 0.77 0.57 0.92 0.87 0.47 0.06 0.02 0.05 0.12 0.13 0.13 0.17 0.35 0.43 0.28 0.27 0.55 0.42 0.25 0.18 0.08 0.02 0.00 0.04 0.14 0.19 0.11 0.00 0.03 0.03 0.00 0.01 0.03 0.01 0.01 0.00 0.00
0.01 0.00 0.01 0.01 0.02 0.03 0.04 0.02 0.02 0.05 0.07 0.09 0.10 0.15 0.18 0.18 0.28 0.69 0.46 0.54 0.70 0.68 0.12 0.04 0.04 0.06 0.05 0.02 0.05 0.16 0.35 0.38 0.34 0.53 0.92 0.51 0.31 0.22 0.11 0.05 0.08 0.21 0.16 0.09 0.01 0.06 0.02 0.03 0.02 0.06 0.04 0.01 0.00 0.00
0.01 0.00 0.01 0.01 0.02 0.02 0.02 0.02 0.03 0.04 0.05 0.08 0.08 0.10 0.13 0.13 0.20 0.57 0.41 0.36 0.71 0.52 0.11 0.02 0.02 0.05 0.05 0.03 0.02 0.03 0.03 0.05 0.27 0.51 0.66 0.55 0.46 0.61 0.38 0.15 0.25 0.16 0.21 0.15 0.06 0.02 0.05 0.08 0.06 0.07 0.12 0.10 0.01 0.00
0.00 0.00 0.01 0.01 0.02 0.01 0.01 0.02 0.03 0.04 0.06 0.05 0.04 0.08 0.12 0.14 0.12 0.26 0.32 0.23 0.43 0.54 0.22 0.02 0.02 0.03 0.01 0.01 0.01 0.00 0.00 0.01 0.17 0.34 0.58 0.73 0.54 1.01 0.76 0.62 0.54 0.44 0.30 0.17 0.13 0.09 0.20 0.24 0.40 0.14 0.15 0.09 0.04 0.10
0.00 0.00 0.00 0.00 0.01 0.01 0.02 0.05 0.06 0.04 0.02 0.02 0.03 0.07 0.12 0.09 0.08 0.13 0.23 0.19 0.30 0.74 0.32 0.02 0.02 0.01 0.01 0.00 0.01 0.00 0.00 0.00 0.04 0.13 0.23 0.30 0.37 0.71 0.69 0.96 0.81 0.58 0.55 0.42 0.29 0.20 0.26 0.35 0.41 0.24 0.14 0.20 0.18 0.22
0.00 0.00 0.00 0.00 0.02 0.02 0.02 0.04 0.03 0.02 0.02 0.03 0.05 0.08 0.06 0.05 0.06 0.11 0.25 0.19 0.22 0.43 0.41 0.06 0.03 0.03 0.02 0.01 0.02 0.02 0.04 0.07 0.14 0.23 0.23 0.28 0.28 0.63 0.88 1.14 0.82 0.66 0.70 1.18 0.69 0.43 0.28 0.41 0.32 0.31 0.19 0.16 0.19 0.21
0.00 0.00 0.00 0.01 0.01 0.02 0.02 0.02 0.02 0.02 0.02 0.04 0.05 0.03 0.01 0.01 0.04 0.19 0.31 0.17 0.15 0.28 0.38 0.17 0.16 0.16 0.06 0.07 0.10 0.17 0.22 0.31 0.46 0.64 0.49 0.64 0.91 1.07 0.92 0.91 0.95 0.76 0.87 1.37 0.68 0.60 0.56 0.32 0.53 0.51 0.55 0.47 0.27 0.27
0.00 0.00 0.00 0.01 0.01 0.01 0.01 0.01 0.02 0.02 0.02 0.03 0.02 0.00 0.00 0.01 0.04 0.07 0.10 0.26 0.34 0.41 0.38 0.30 0.27 0.43 0.25 0.21 0.28 0.21 0.28 0.39 0.52 0.70 0.72 0.99 1.36 1.50 1.30 0.89 1.38 1.46 1.26 1.33 0.83 0.32 0.62 0.89 0.62 0.90 0.76 0.67 0.57 0.36
0.00 0.00 0.01 0.01 0.01 0.01 0.01 0.02 0.01 0.01 0.02 0.01 0.00 0.00 0.01 0.01 0.05 0.14 0.11 0.28 0.41 0.52 0.64 0.71 0.92 1.00 0.94 0.68 0.35 0.39 0.47 0.64 0.75 1.04 1.52 2.00 2.46 3.19 2.78 2.55 2.11 1.75 1.44 1.28 1.17 0.48 0.42 0.76 0.88 1.05 1.09 0.84 0.57 0.41
0.00 0.01 0.01 0.01 0.01 0.00 0.01 0.00 0.00 0.01 0.00 0.00 0.00 0.01 0.12 0.06 0.04 0.16 0.33 0.38 0.44 0.45 0.59 0.75 0.87 0.82 1.03 0.53 0.33 0.58 0.72 0.91 1.40 1.71 2.12 2.53 3.37 3.31 3.58 2.98 2.11 1.95 1.50 1.35 0.97 0.68 0.82 1.29 0.86 1.47 1.18 1.18 0.58 0.52
0.01 0.01 0.01 0.01 0.00 0.00 0.00 0.00 0.00 0.01 0.00 0.00 0.00 0.01 0.03 0.00 0.11 0.34 0.59 0.66 0.58 0.91 0.95 0.66 0.92 1.13 0.61 0.63 0.64 0.90 1.29 1.49 1.88 1.97 1.96 2.48 3.66 4.35 3.74 3.03 2.59 1.97 1.54 1.30 0.81 0.64 1.03 1.71 1.16 1.85 1.22 1.12 0.77 0.79
0.01 0.01 0.01 0.00 0.00 0.00 0.00 0.00 0.00 0.00 0.00 0.01 0.01 0.01 0.01 0.09 0.24 0.57 1.07 0.98 1.44 1.49 1.15 0.78 0.90 0.97 0.73 0.54 0.86 1.07 1.47 1.65 1.45 1.28 1.69 3.15 3.91 3.85 3.82 3.75 3.29 2.49 1.65 1.47 1.59 1.67 1.43 1.46 1.19 1.55 1.50 1.05 1.02 0.81
0.01 0.01 0.00 0.00 0.00 0.00 0.00 0.00 0.00 0.00 0.00 0.01 0.02 0.03 0.05 0.18 0.51 1.02 2.00 1.88 1.00 0.75 0.71 0.70 0.74 0.59 0.48 0.57 1.05 1.29 1.25 1.11 0.84 1.29 2.98 4.19 3.33 2.75 2.62 2.48 2.53 2.66 2.35 2.57 3.22 2.59 1.83 1.51 1.59 1.75 1.98 1.36 1.02 1.09
0.00 0.00 0.00 0.00 0.00 0.00 0.00 0.00 0.00 0.00 0.00 0.01 0.01 0.03 0.14 0.37 0.75 1.04 1.06 1.25 0.54 0.42 0.26 0.31 0.37 0.55 0.78 0.41 0.54 0.70 0.42 0.45 0.95 1.94 3.01 2.46 2.02 1.80 1.57 1.56 1.90 2.23 2.46 2.88 3.22 2.95 2.34 1.81 2.09 2.09 1.83 1.40 0.95 1.17
0.00 0.00 0.00 0.00 0.00 0.00 0.00 0.00 0.00 0.00 0.01 0.03 0.07 0.17 0.18 0.22 0.24 0.30 0.30 0.34 0.17 0.07 0.03 0.06 0.04 0.05 0.07 0.13 0.19 0.34 0.35 0.98 1.83 2.32 2.12 1.74 1.27 0.92 0.76 0.54 0.58 0.81 0.97 1.13 1.22 1.29 1.51 1.49 1.46 1.65 1.43 0.99 0.90 0.78
0.00 0.00 0.00 0.00 0.00 0.00 0.00 0.00 0.00 0.00 0.04 0.12 0.16 0.16 0.10 0.07 0.04 0.00 0.01 0.06 0.03 0.01 0.01 0.00 0.01 0.06 0.10 0.11 0.19 0.40 0.94 1.82 1.78 1.32 0.95 0.61 0.51 0.43 0.47 0.45 0.23 0.15 0.08 0.07 0.08 0.11 0.14 0.23 0.34 0.49 0.50 0.51 0.55 0.50
0.00 0.00 0.00 0.00 0.00 0.00 0.00 0.00 0.00 0.00 0.01 0.04 0.08 0.04 0.08 0.10 0.04 0.01 0.00 0.02 0.01 0.01 0.00 0.00 0.08 0.27 0.41 0.53 0.88 1.41 1.94 1.54 0.96 0.68 0.61 0.50 0.40 0.35 0.33 0.30 0.30 0.24 0.11 0.02 0.01 0.01 0.02 0.01 0.00 0.01 0.01 0.01 0.02 0.03
0.00 0.00 0.00 0.00 0.00 0.00 0.00 0.00 0.00 0.00 0.01 0.02 0.03 0.02 0.01 0.05 0.06 0.02 0.00 0.00 0.00 0.00 0.00 0.02 0.06 0.23 0.77 1.36 1.71 1.59 1.17 0.88 0.68 0.59 0.48 0.41 0.34 0.38 0.30 0.21 0.24 0.23 0.14 0.06 0.08 0.02 0.00 0.00 0.00 0.00 0.00 0.00 0.00 0.00
0.00 0.00 0.00 0.00 0.00 0.00 0.00 0.00 0.00 0.00 0.01 0.00 0.02 0.01 0.01 0.03 0.04 0.03 0.00 0.00 0.00 0.00 0.00 0.00 0.04 0.27 0.53 0.69 0.56 0.44 0.45 0.51 0.53 0.49 0.40 0.35 0.30 0.31 0.25 0.18 0.13 0.11 0.03 0.00 0.00 0.00 0.00 0.00 0.00 0.00 0.00 0.00 0.00 0.00
0.00 0.00 0.00 0.00 0.00 0.00 0.00 0.00 0.00 0.00 0.00 0.01 0.03 0.01 0.01 0.01 0.02 0.00 0.00 0.00 0.00 0.00 0.02 0.09 0.16 0.20 0.17 0.18 0.21 0.22 0.26 0.31 0.32 0.25 0.19 0.08 0.04 0.04 0.03 0.02 0.00 0.00 0.00 0.00 0.00 0.00 0.00 0.00 0.00 0.00 0.00 0.00 0.00 0.00
0.00 0.00 0.00 0.00 0.00 0.00 0.00 0.00 0.00 0.00 0.00 0.03 0.03 0.00 0.04 0.01 0.01 0.02 0.03 0.00 0.00 0.04 0.14 0.23 0.20 0.17 0.12 0.13 0.12 0.12 0.15 0.16 0.15 0.17 0.10 0.00 0.00 0.00 0.00 0.00 0.00 0.00 0.00 0.00 0.00 0.00 0.00 0.00 0.00 0.00 0.00 0.00 0.00 0.00
0.00 0.00 0.00 0.00 0.00 0.00 0.00 0.00 0.00 0.00 0.01 0.04 0.03 0.02 0.08 0.05 0.02 0.02 0.04 0.02 0.07 0.16 0.21 0.24 0.21 0.13 0.09 0.10 0.08 0.05 0.12 0.20 0.16 0.14 0.08 0.06 0.00 0.00 0.00 0.00 0.00 0.00 0.00 0.00 0.00 0.00 0.00 0.00 0.00 0.00 0.00 0.00 0.00 0.00
0.00 0.00 0.00 0.00 0.00 0.01 0.02 0.02 0.02 0.01 0.08 0.24 0.11 0.07 0.12 0.11 0.08 0.02 0.08 0.12 0.11 0.14 0.14 0.15 0.13 0.07 0.03 0.03 0.02 0.01 0.01 0.04 0.03 0.03 0.03 0.02 0.00 0.00 0.00 0.00 0.00 0.00 0.00 0.00 0.00 0.00 0.00 0.00 0.00 0.00 0.00 0.00 0.00 0.00
0.00 0.00 0.00 0.00 0.04 0.13 0.07 0.03 0.02 0.06 0.10 0.20 0.33 0.31 0.31 0.27 0.19 0.09 0.14 0.17 0.13 0.08 0.05 0.03 0.01 0.00 0.00 0.00 0.00 0.00 0.00 0.00 0.00 0.00 0.00 0.00 0.00 0.00 0.00 0.00 0.00 0.00 0.00 0.00 0.00 0.00 0.00 0.00 0.00 0.00 0.00 0.00 0.00 0.00
0.01 0.01 0.02 0.05 0.06 0.11 0.07 0.06 0.05 0.10 0.24 0.16 0.16 0.44 0.44 0.43 0.35 0.14 0.14 0.12 0.05 0.02 0.00 0.00 0.00 0.00 0.00 0.00 0.00 0.00 0.00 0.00 0.00 0.00 0.00 0.00 0.00 0.00 0.00 0.00 0.00 0.00 0.00 0.00 0.00 0.00 0.00 0.00 0.00 0.00 0.00 0.00 0.00 0.00
0.07 0.05 0.08 0.12 0.17 0.22 0.10 0.14 0.09 0.09 0.18 0.15 0.08 0.13 0.14 0.41 0.34 0.18 0.14 0.07 0.02 0.01 0.00 0.01 0.00 0.00 0.00 0.00 0.00 0.00 0.00 0.00 0.00 0.00 0.00 0.00 0.00 0.00 0.00 0.00 0.00 0.00 0.00 0.00 0.00 0.00 0.00 0.00 0.00 0.00 0.00 0.00 0.00 0.00
0.25 0.31 0.12 0.09 0.14 0.12 0.17 0.09 0.03 0.03 0.12 0.11 0.06 0.09 0.13 0.21 0.15 0.33 0.18 0.03 0.00 0.00 0.01 0.01 0.00 0.01 0.00 0.00 0.00 0.00 0.00 0.00 0.00 0.00 0.00 0.00 0.00 0.00 0.00 0.00 0.00 0.00 0.00 0.00 0.00 0.00 0.00 0.00 0.00 0.00 0.00 0.00 0.00 0.00
0.36 0.32 0.35 0.62 0.19 0.02 0.13 0.15 0.13 0.09 0.06 0.00 0.04 0.07 0.06 0.07 0.18 0.37 0.08 0.00 0.00 0.00 0.01 0.00 0.00 0.00 0.00 0.00 0.00 0.00 0.00 0.00 0.00 0.00 0.00 0.00 0.00 0.00 0.00 0.00 0.00 0.00 0.00 0.00 0.00 0.00 0.00 0.00 0.00 0.00 0.00 0.00 0.00 0.00
0.09 0.08 0.05 0.09 0.02 0.01 0.07 0.08 0.02 0.02 0.00 0.00 0.06 0.02 0.01 0.06 0.08 0.05 0.01 0.01 0.02 0.04 0.03 0.01 0.00 0.00 0.00 0.00 0.00 0.00 0.00 0.00 0.00 0.00 0.00 0.00 0.00 0.00 0.00 0.00 0.00 0.00 0.00 0.00 0.00 0.00 0.00 0.00 0.00 0.00 0.00 0.00 0.00 0.00
0.03 0.05 0.04 0.03 0.05 0.14 0.10 0.01 0.03 0.02 0.01 0.00 0.01 0.07 0.04 0.06 0.07 0.07 0.04 0.04 0.05 0.03 0.00 0.00 0.00 0.00 0.00 0.00 0.00 0.00 0.00 0.00 0.00 0.00 0.00 0.00 0.00 0.00 0.00 0.00 0.00 0.00 0.00 0.00 0.00 0.00 0.00 0.00 0.00 0.00 0.00 0.00 0.00 0.00
0.00 0.00 0.00 0.02 0.04 0.04 0.02 0.00 0.01 0.04 0.05 0.02 0.06 0.27 0.14 0.07 0.17 0.08 0.02 0.02 0.01 0.00 0.00 0.00 0.00 0.00 0.00 0.00 0.00 0.00 0.00 0.00 0.00 0.00 0.00 0.00 0.00 0.00 0.00 0.00 0.00 0.00 0.00 0.00 0.00 0.00 0.00 0.00 0.00 0.00 0.01 0.00 0.01 0.00
0.00 0.00 0.00 0.00 0.01 0.01 0.01 0.04 0.01 0.03 0.03 0.02 0.04 0.15 0.11 0.40 0.36 0.06 0.02 0.01 0.00 0.00 0.00 0.00 0.00 0.00 0.00 0.00 0.00 0.00 0.00 0.00 0.00 0.00 0.00 0.00 0.00 0.00 0.00 0.00 0.00 0.00 0.00 0.00 0.00 0.00 0.01 0.01 0.02 0.03 0.03 0.02 0.01 0.00
0.00 0.00 0.00 0.00 0.00 0.00 0.01 0.10 0.16 0.13 0.02 0.01 0.04 0.09 0.14 0.20 0.15 0.03 0.01 0.00 0.00 0.00 0.00 0.00 0.00 0.00 0.00 0.00 0.00 0.00 0.00 0.00 0.00 0.00 0.00 0.00 0.00 0.00 0.00 0.00 0.00 0.00 0.00 0.01 0.01 0.02 0.02 0.02 0.03 0.04 0.03 0.03 0.02 0.01